Location: Unnamed
(47.6578°N, 23.5640°E)
Time: 22:48:26
(UTC+03:00)

ISS - Pass Details

Date: 01 May 2020
Orbit: 418 x 421 km, 51.6° (Epoch: 08 May)

Event Time Altitude Azimuth Distance (km) Brightness Sun altitude
Exits shadow 04:44:57 22° 211° (SSW) 975 -2.5 -12.7°
Maximum altitude 04:46:48 46° 148° (SSE) 571 -3.2 -12.5°
Drops below altitude 10° 04:50:03 10° 73° (ENE) 1,500 0.2 -12.0°
Sets 04:52:12 0° 68° (ENE) 2,368 1.7 -11.8°
